Theta_e
334 334 334 334 334 333 332 332 333 334 333 331 330 330 329 328 328 328 328 328 326 326 325 323 322 321 317 315 313 311 309 306 304 302 301 301 301 301 301 301 301 300 300 300 300 300 300 299 299 299 299 298 298 298 298 298 298 298 298 298 298 297 298 298 298 299 299 299 298 298 298 298 298 297 297 296 297 297 297 297 297 296 297 298 298
334 334 335 335 335 333 332 333 334 334 333 331 331 330 329 328 328 328 327 327 326 326 324 323 322 321 318 315 313 311 309 306 303 302 301 301 301 301 301 301 300 300 300 300 300 299 299 299 299 299 298 298 298 298 298 298 298 298 298 298 298 298 298 298 298 298 298 298 298 298 298 298 298 297 297 296 296 296 296 296 296 296 297 298 298
335 335 335 336 335 334 334 334 334 334 332 332 331 330 329 328 327 328 328 327 327 326 324 323 323 321 318 316 313 310 308 305 302 302 301 301 301 301 301 300 300 300 300 300 299 299 299 299 298 298 298 298 298 298 298 299 298 298 297 298 298 298 297 297 298 298 298 298 298 298 298 298 298 297 296 296 296 296 296 296 296 296 297 298 298
336 336 336 336 335 335 334 334 334 333 332 331 331 329 328 328 327 328 328 328 327 325 324 324 323 321 318 315 312 309 306 304 302 301 301 301 301 301 300 300 300 299 300 299 299 299 299 298 298 298 298 298 298 298 298 298 298 298 298 298 298 298 297 297 297 298 298 298 298 298 298 298 297 296 296 296 296 296 296 296 296 296 297 297 298
336 336 336 336 336 335 334 334 333 332 332 331 330 329 328 327 327 328 328 328 327 326 324 324 322 318 315 312 309 306 304 302 301 301 301 300 300 300 300 300 299 299 299 299 299 298 298 298 298 298 298 298 298 298 298 298 298 298 297 298 298 297 297 297 297 298 297 297 297 298 298 297 296 296 296 296 296 296 296 296 296 296 297 297 297
337 337 336 336 336 335 334 333 333 333 332 330 330 329 328 327 328 329 328 328 327 325 324 322 320 316 312 309 307 304 302 300 300 300 300 300 300 300 299 299 299 299 299 299 298 298 298 298 298 298 298 298 298 298 298 297 298 298 297 297 297 297 297 297 297 297 297 297 297 297 297 296 296 296 295 295 295 295 296 296 296 296 297 297 297
337 337 337 336 335 335 334 333 333 332 331 330 330 328 327 328 329 329 328 328 327 325 323 321 319 316 312 309 306 303 301 300 300 300 300 300 300 299 299 299 299 299 298 298 298 298 298 298 298 298 298 298 298 297 297 297 297 297 297 297 297 297 297 297 297 297 297 297 297 297 296 296 296 295 295 295 295 295 296 296 296 296 296 297 298
338 337 337 336 335 334 333 333 332 331 330 330 329 327 327 328 329 328 328 327 327 325 323 321 319 315 311 308 305 303 301 300 300 300 300 300 299 299 299 299 299 299 298 298 298 298 298 298 298 298 298 297 297 297 297 297 297 297 297 297 297 297 297 297 297 297 297 297 297 296 296 296 295 295 295 295 295 296 296 296 296 297 296 296 297
338 337 336 335 334 334 333 332 332 330 330 329 327 326 327 329 328 328 327 327 326 325 323 320 317 314 311 308 305 303 301 300 299 299 299 300 299 299 299 299 299 298 298 298 298 298 298 298 298 298 297 297 297 297 297 297 297 297 297 297 297 297 297 297 297 297 297 297 296 296 296 295 295 296 296 296 296 296 296 296 297 297 297 296 297
338 337 336 335 335 334 333 332 331 330 330 329 326 326 328 328 327 327 327 327 326 325 322 319 316 314 312 309 306 304 302 301 299 299 299 299 299 299 299 299 298 298 298 298 298 298 298 298 297 297 297 297 297 297 297 297 297 297 297 297 297 297 297 297 297 297 296 296 296 296 296 296 296 297 298 298 298 298 297 297 297 297 297 297 297
337 336 336 335 335 334 333 332 331 331 330 328 326 327 328 327 327 327 327 327 326 324 322 318 316 314 312 309 306 304 302 301 300 299 299 299 299 299 298 298 298 298 298 298 298 298 298 297 297 297 297 297 297 297 297 297 297 297 297 297 297 297 297 296 296 296 296 296 296 296 296 297 298 299 299 299 299 299 298 298 297 297 298 298 298
337 336 336 335 335 334 333 332 332 331 330 328 327 327 328 327 327 328 327 326 326 324 321 318 316 313 311 308 307 305 304 303 302 301 301 300 299 299 298 299 299 298 298 298 297 297 297 297 297 297 297 297 297 297 297 297 297 297 297 297 297 296 296 296 296 296 296 296 296 296 297 298 299 299 300 300 299 299 299 298 297 297 298 299 298
337 336 335 335 334 333 333 332 331 331 330 328 327 328 327 327 327 327 327 326 325 324 321 317 315 313 310 308 307 307 307 305 304 302 301 301 300 299 299 299 299 298 298 298 297 297 297 297 297 296 296 297 297 297 297 297 297 297 297 297 297 297 297 297 297 297 296 296 296 296 297 299 299 300 300 300 300 299 299 298 298 298 299 299 298
337 336 335 334 334 333 333 332 331 331 330 329 328 328 327 326 327 327 327 326 325 323 320 317 314 312 310 309 309 309 308 306 305 303 303 303 302 301 301 301 300 299 299 298 297 297 297 297 297 296 296 296 297 296 297 297 297 297 297 297 297 298 298 298 299 298 298 297 296 296 298 299 300 300 300 300 300 299 299 299 298 298 299 298 298
337 336 336 335 334 333 333 332 331 331 330 329 328 328 327 327 327 327 327 326 325 324 321 317 314 312 310 310 310 309 309 307 305 305 305 305 304 304 304 303 301 301 301 300 299 298 298 298 297 296 297 297 297 297 297 297 297 297 297 298 297 297 298 300 300 300 299 297 296 297 299 300 300 300 300 300 300 300 299 298 298 299 299 298 297
336 336 336 335 334 334 333 332 332 331 330 329 328 328 327 327 327 327 327 326 325 323 320 317 314 312 310 310 310 310 309 308 306 306 305 304 304 305 305 304 303 303 303 302 301 299 300 300 298 297 298 298 297 297 297 297 297 297 297 298 298 297 298 300 300 299 299 297 297 299 300 300 300 300 300 300 300 300 299 297 298 298 298 298 298
336 336 335 335 334 333 332 332 331 330 329 328 328 328 327 327 328 327 326 325 325 323 320 317 314 313 311 310 310 310 310 309 307 306 305 303 303 304 304 303 303 303 304 304 304 304 304 303 299 298 299 298 297 298 297 296 297 297 297 298 297 297 299 300 300 299 299 297 297 300 301 300 300 300 300 301 300 299 298 298 298 298 298 298 298
336 335 335 334 333 333 332 332 331 330 328 328 327 328 328 327 328 327 326 326 325 324 321 318 315 313 312 311 310 310 310 309 308 307 305 303 302 304 304 302 301 301 302 303 304 305 304 302 299 299 300 298 298 299 298 297 296 297 297 297 297 297 298 299 299 299 298 297 298 300 301 300 300 300 300 301 300 299 299 299 298 298 298 298 298
335 335 334 334 333 333 332 331 330 329 328 327 327 327 327 327 327 327 326 326 325 323 321 318 315 313 312 311 311 310 309 309 308 308 306 303 302 304 304 302 300 300 300 300 301 301 301 300 298 299 299 298 298 298 298 297 296 297 297 297 297 297 297 298 298 297 297 297 299 300 300 300 300 300 300 300 300 299 299 299 299 298 298 298 298
335 335 334 333 333 332 332 331 330 329 328 327 327 327 327 327 327 326 326 326 325 323 321 318 315 314 312 312 311 310 310 309 309 308 307 304 302 303 303 302 300 299 299 300 301 300 299 299 299 298 298 297 297 297 298 298 296 296 297 297 297 297 297 297 297 296 297 298 299 300 300 300 300 300 300 300 299 299 300 299 299 299 298 298 298
335 334 333 333 332 332 331 330 329 329 328 327 327 327 326 327 327 326 326 326 325 323 319 317 315 314 313 312 311 310 310 309 308 308 307 304 302 302 302 301 299 298 298 300 301 301 300 300 299 298 297 297 297 296 297 297 296 296 296 296 297 297 297 296 296 296 297 298 299 300 300 300 299 299 300 300 299 299 300 299 298 298 299 299 298
334 333 333 332 332 332 331 330 329 329 328 327 327 327 327 327 327 327 326 326 325 322 318 316 315 314 313 312 311 310 310 309 308 307 306 304 302 301 300 298 297 298 299 300 302 303 304 302 300 299 298 298 298 298 297 296 296 296 296 297 297 296 296 296 296 296 297 299 299 300 299 300 299 299 299 300 299 299 299 299 298 298 298 299 299
333 333 333 332 331 331 330 329 328 328 327 327 327 327 327 327 327 326 326 325 324 321 319 317 315 314 313 312 311 311 310 309 307 305 304 304 302 300 298 296 297 299 300 301 304 306 305 303 301 301 300 299 300 299 297 296 296 296 296 296 296 296 296 296 296 296 298 299 299 299 299 299 299 299 299 300 300 300 299 299 298 298 298 298 299
333 332 332 332 330 329 328 328 328 328 327 327 327 328 328 327 326 325 325 324 324 321 319 317 315 314 313 312 312 311 310 308 306 304 302 302 302 300 298 296 297 300 301 302 304 306 305 303 302 301 300 300 301 301 299 297 296 296 296 296 296 296 296 296 296 297 298 300 300 299 299 299 299 299 299 300 299 300 299 299 298 298 298 298 299
332 332 331 330 328 327 327 327 328 328 327 328 328 328 327 326 326 325 324 323 323 321 319 318 316 315 314 312 312 311 310 307 305 302 301 301 300 300 298 297 297 300 302 302 304 306 305 304 303 302 301 302 303 303 302 300 298 297 296 296 296 296 296 296 297 298 299 300 300 300 300 300 299 299 299 299 299 299 299 299 299 299 298 298 299
331 331 331 329 328 328 328 327 327 327 327 328 328 328 327 327 326 325 324 323 322 321 319 318 317 315 314 313 312 311 310 308 305 302 300 299 299 298 299 298 297 298 300 303 304 305 305 304 304 304 303 303 304 304 303 302 301 299 297 296 296 297 296 296 298 299 300 300 300 300 300 300 300 299 299 299 299 299 299 299 299 299 299 299 299
331 330 330 329 328 328 327 326 326 326 326 327 327 326 326 326 325 325 325 323 322 321 319 318 317 316 315 313 312 311 309 307 306 303 301 299 298 297 298 299 298 296 298 303 305 304 305 305 305 304 304 304 304 303 303 303 302 300 298 296 296 296 296 297 299 300 301 301 301 301 300 300 300 300 299 298 299 299 299 299 299 299 299 299 299
331 329 329 328 327 326 326 326 327 327 326 326 326 326 325 325 325 325 325 324 323 322 321 320 319 318 317 315 313 311 308 306 306 305 302 300 299 298 298 299 298 296 297 301 304 305 305 305 305 304 304 304 303 303 303 303 303 301 298 296 296 297 299 300 300 301 301 301 300 300 300 300 300 300 299 299 299 299 299 299 299 299 299 299 299
330 330 329 328 327 326 326 327 327 327 327 326 326 325 325 325 325 325 324 323 323 322 322 321 320 319 317 315 313 311 309 308 307 306 303 301 300 299 298 298 298 297 296 298 302 304 305 305 305 305 304 303 303 303 303 303 302 300 297 296 296 299 301 302 301 301 301 301 300 300 300 300 300 300 299 299 299 299 299 299 299 299 299 299 299
329 329 328 328 327 327 327 327 326 326 326 326 325 324 324 323 323 323 322 322 322 321 320 319 319 317 315 313 312 310 308 307 305 303 302 301 300 299 298 297 297 296 296 296 300 303 305 305 304 304 303 303 303 303 302 302 300 298 297 296 297 299 302 302 302 302 301 301 300 300 300 300 300 300 299 299 299 299 299 299 299 299 299 299 299
329 328 328 328 328 327 326 326 326 326 325 325 325 324 323 323 322 321 321 320 319 318 318 318 317 316 313 311 309 308 305 303 302 302 302 302 302 301 300 298 297 297 296 295 297 300 303 304 304 303 303 303 302 302 302 301 299 297 296 296 297 299 301 301 301 301 300 300 300 300 300 300 300 300 300 300 300 300 299 299 299 299 299 299 299
329 329 328 327 327 326 326 326 326 326 325 325 324 324 323 323 322 321 320 319 318 317 317 316 315 314 312 310 307 305 303 302 302 302 303 303 303 302 300 299 298 298 297 295 295 296 298 300 302 302 302 302 301 301 301 300 297 296 296 296 298 300 301 300 300 300 300 300 300 300 300 300 301 300 300 300 300 300 299 299 299 299 299 299 299
329 328 327 327 326 326 326 326 326 326 325 325 324 324 323 322 322 321 320 318 317 316 316 315 314 313 311 309 306 303 302 301 302 302 303 303 302 300 299 298 298 297 296 295 294 294 295 296 298 299 299 299 298 299 299 298 296 296 296 297 298 300 300 300 300 300 300 300 301 301 301 301 301 300 300 300 300 300 299 299 299 299 299 299 299
328 328 327 327 327 326 326 326 326 325 325 325 324 324 323 323 322 321 320 318 316 315 314 314 314 312 311 309 306 303 302 301 302 302 302 300 300 299 298 297 296 295 295 294 294 294 293 294 294 295 295 295 295 296 297 296 296 296 297 298 299 300 300 300 300 299 300 300 301 301 301 301 301 300 300 300 299 299 299 299 299 299 299 299 299
326 326 326 326 326 326 326 326 325 325 324 324 323 323 323 322 320 319 318 317 316 315 314 314 313 312 311 309 306 303 302 302 302 302 300 299 298 298 298 297 295 294 294 294 294 293 293 293 293 293 293 293 294 294 295 295 295 296 297 299 300 300 300 300 299 299 299 300 300 300 301 301 300 300 300 300 300 299 299 299 299 299 299 299 299
325 325 325 325 325 325 325 324 324 324 323 322 322 321 320 319 318 318 317 316 315 314 313 313 312 312 310 307 305 303 303 303 303 302 300 299 298 298 297 297 295 294 293 293 293 293 293 293 293 293 293 293 293 293 293 294 295 296 298 299 300 299 299 299 299 299 299 300 300 301 301 300 300 300 299 299 299 298 298 299 299 299 299 299 299
325 325 325 325 324 324 324 323 322 322 321 321 320 319 318 317 317 317 316 315 314 312 312 311 311 311 310 308 306 305 305 305 304 302 300 299 299 298 297 297 295 294 293 293 293 293 293 293 293 293 293 293 293 293 293 294 294 295 297 298 299 299 299 298 298 299 299 300 300 300 300 300 300 299 298 298 298 298 299 299 299 299 299 299 299
325 325 325 324 324 323 322 322 321 321 320 319 318 317 317 316 316 316 316 315 313 312 311 311 311 311 310 310 309 308 307 306 304 302 301 300 300 299 298 297 295 294 293 293 293 293 293 293 293 293 293 293 293 293 293 294 294 295 296 297 298 298 298 298 298 299 299 299 300 300 300 299 299 299 298 298 298 298 299 299 299 299 299 299 299
324 323 323 323 323 322 322 321 321 320 319 318 317 317 316 316 315 315 315 314 313 312 311 311 311 310 310 310 309 308 308 307 306 304 303 302 301 300 299 297 296 295 294 293 293 292 292 292 292 292 293 293 293 293 294 294 294 294 295 295 295 296 297 298 298 298 299 299 299 299 299 299 299 299 299 299 298 298 298 298 298 299 299 299 299
323 322 322 321 321 321 321 321 320 319 318 318 317 317 316 316 315 315 314 314 313 312 311 311 311 311 310 309 309 308 308 308 307 306 305 303 302 301 300 299 298 297 296 294 293 293 293 292 292 292 293 293 293 294 294 294 294 295 295 295 295 296 297 298 298 298 298 298 298 298 299 299 299 299 299 299 299 298 298 298 298 298 298 299 299
322 322 321 320 319 319 319 320 320 319 319 318 318 317 316 315 315 314 314 313 313 312 312 311 312 312 311 310 309 308 308 308 308 307 306 305 304 303 302 301 300 299 298 296 295 294 294 293 293 293 293 293 294 294 294 295 296 297 297 297 297 297 297 297 297 297 297 297 297 298 298 299 299 299 299 299 299 299 298 297 298 298 299 299 299
321 321 320 320 319 319 319 319 319 319 318 317 317 317 316 315 315 314 314 313 313 313 312 312 311 311 311 310 309 308 308 308 307 307 306 305 304 303 302 301 301 300 299 298 297 295 294 294 294 293 293 294 294 295 296 297 299 300 299 298 298 297 297 297 297 297 297 296 297 297 298 298 299 299 299 299 299 299 298 298 298 298 298 298 298
319 319 319 319 319 319 319 319 319 318 318 317 317 316 315 315 314 314 313 313 313 313 312 312 311 311 311 310 309 307 307 307 306 306 306 305 304 303 302 301 301 301 300 299 298 296 295 294 294 294 294 294 295 295 297 299 301 301 300 299 298 298 297 297 297 297 297 296 296 297 298 298 298 299 299 299 299 299 299 298 298 298 298 298 298
318 317 317 317 317 317 317 317 317 317 317 317 316 316 315 315 314 313 313 312 312 312 312 311 311 310 310 310 309 308 307 306 306 305 305 304 304 303 302 301 301 300 300 299 298 297 296 295 294 294 294 295 296 296 297 299 300 300 300 300 299 299 298 298 299 298 297 296 296 296 297 297 298 299 299 299 299 299 298 298 298 298 298 298 299
318 317 317 317 316 316 315 315 316 316 316 316 315 315 315 314 314 313 312 311 311 311 311 310 310 309 309 309 309 308 308 307 306 306 305 304 303 303 302 301 301 300 299 298 297 297 296 295 295 294 294 295 296 297 297 298 299 299 300 301 301 300 299 299 298 298 297 296 296 296 297 298 298 299 300 300 300 299 299 299 299 299 299 299 299
318 317 316 316 316 315 315 315 315 315 315 315 315 315 314 314 313 312 312 311 311 310 310 309 309 309 309 308 308 308 308 307 306 306 304 303 303 302 302 301 301 300 299 297 296 295 295 295 294 294 293 294 296 297 298 298 298 299 299 300 300 299 299 299 298 298 296 296 296 297 298 298 299 300 300 300 300 300 300 300 300 300 300 300 300
317 317 316 316 315 315 315 315 315 314 314 314 314 314 313 313 312 312 312 311 310 310 309 309 309 309 308 308 307 307 307 307 306 305 304 303 302 302 302 301 301 300 299 297 296 295 294 294 294 294 294 295 296 298 298 298 298 298 298 298 299 299 299 299 299 299 298 297 297 298 298 299 299 300 301 301 300 300 300 300 300 300 300 300 300
317 317 316 315 315 314 314 314 314 313 313 312 312 312 312 311 311 311 311 310 310 309 309 308 308 308 308 308 307 307 306 306 305 305 303 303 302 302 302 301 301 300 299 299 298 297 296 295 294 294 295 296 297 298 298 298 298 299 299 299 299 300 300 300 300 300 299 298 298 298 298 299 300 300 300 300 300 300 300 300 300 300 300 300 299
317 317 316 315 314 313 313 313 313 312 312 312 311 311 311 311 310 310 310 309 309 308 308 308 307 307 307 307 307 306 306 305 305 304 304 303 302 302 302 301 301 301 300 300 300 300 299 298 297 297 297 297 298 299 299 299 300 300 300 301 301 301 301 300 300 299 299 298 299 299 299 299 300 300 299 299 299 299 299 299 299 299 299 299 299
316 316 316 315 314 313 313 313 312 312 312 311 311 311 311 310 310 309 309 309 308 308 308 307 306 306 306 306 306 305 305 305 304 304 304 303 302 302 302 301 301 301 301 300 300 300 300 300 299 299 298 299 299 299 300 300 301 301 301 301 301 301 300 299 298 298 299 299 299 299 299 299 299 299 299 299 299 299 299 299 298 298 298 298 298
315 315 315 314 313 313 313 313 312 312 311 311 311 311 310 310 310 309 309 308 308 308 308 307 306 305 305 305 305 305 305 305 304 304 303 303 303 302 302 301 301 301 301 300 301 301 300 300 299 298 298 298 298 298 300 301 301 301 301 301 301 301 300 299 299 299 299 300 299 299 299 299 299 299 299 299 299 299 299 298 298 298 299 299 299
Wind_Speed
36 35 36 35 34 34 33 32 30 28 27 26 25 26 26 26 25 24 23 21 20 17 15 15 16 16 16 17 17 16 17 16 16 17 18 18 18 17 16 15 14 13 13 13 12 12 11 11 11 11 11 11 11 11 11 10 9 7 6 5 4 3 2 2 3 3 2 3 5 6 8 11 13 15 18 19 19 18 18 18 19 19 19 19 19
36 36 36 34 34 34 33 31 31 29 28 27 27 26 27 26 25 24 23 21 18 15 14 15 16 15 16 17 17 17 17 17 17 18 19 19 19 18 17 16 15 15 14 14 13 13 12 12 11 11 11 12 12 12 12 10 9 8 7 5 4 3 2 2 3 2 1 3 5 7 9 11 13 15 18 19 20 19 19 19 19 18 18 19 20
37 36 35 35 34 34 33 32 32 30 29 29 28 28 28 27 25 24 22 19 16 14 14 16 16 15 16 17 17 18 18 17 17 19 20 20 19 19 18 17 16 16 15 14 14 13 13 12 12 11 12 12 12 11 11 10 9 8 7 6 5 4 2 3 4 4 4 5 6 9 11 12 12 15 17 18 19 19 19 20 20 18 18 19 21
38 37 37 36 35 33 33 33 32 31 31 31 30 30 29 28 26 24 21 18 16 15 17 17 16 16 16 17 18 19 19 18 18 19 20 20 20 19 18 18 17 16 15 15 14 14 13 13 13 13 13 13 12 11 10 9 8 8 7 6 4 2 2 4 4 5 6 7 7 9 11 12 12 14 17 18 18 19 19 19 20 19 17 18 20
38 38 38 37 36 34 34 34 33 32 32 32 31 31 31 29 27 24 21 19 18 18 18 18 16 16 17 17 18 19 18 18 19 20 20 20 20 20 19 18 18 17 16 15 14 14 14 14 14 14 13 13 12 11 10 9 7 7 6 4 3 2 3 4 5 5 6 8 8 9 10 11 12 14 16 18 20 20 19 18 19 21 19 18 19
38 39 38 37 37 35 35 35 34 33 33 33 33 33 32 30 26 23 21 19 18 18 18 17 16 16 16 17 18 18 18 19 19 20 20 20 21 20 19 18 18 17 17 16 15 15 15 15 15 14 14 12 11 10 9 8 7 6 5 4 3 3 3 4 5 5 6 7 9 9 10 11 13 15 16 18 20 23 22 19 19 21 22 21 20
39 40 38 37 37 36 36 35 34 33 34 34 35 34 32 28 25 23 20 18 18 18 18 17 16 16 16 17 17 18 18 19 20 20 20 21 21 21 20 19 19 19 18 17 16 16 16 16 15 14 12 10 9 8 8 7 6 5 5 4 3 3 3 4 5 6 7 8 9 10 10 11 14 15 16 17 19 22 25 26 24 23 24 24 24
40 40 38 37 37 36 36 35 33 33 34 34 35 34 30 26 24 22 19 18 18 19 19 18 16 16 16 17 18 18 19 20 21 21 22 22 22 21 21 20 20 20 18 17 17 17 16 15 13 12 10 8 8 9 8 7 5 4 4 4 3 3 3 4 4 5 7 9 9 10 11 12 14 16 18 20 22 24 27 29 29 28 27 25 25
40 40 39 38 37 36 35 34 33 33 34 34 33 31 28 25 24 22 20 18 18 19 19 18 17 17 17 18 19 19 20 21 22 22 23 23 23 22 21 21 21 20 19 18 18 18 16 14 12 11 10 10 10 9 9 7 6 6 5 4 3 3 3 3 4 5 7 9 10 11 12 13 15 18 21 24 26 28 29 30 30 29 29 27 25
40 40 39 38 37 36 35 34 33 34 34 34 32 29 28 26 24 23 21 19 18 20 20 19 18 18 18 19 20 20 21 21 22 23 24 24 23 23 22 21 21 20 20 19 18 17 15 12 11 12 12 11 10 9 9 8 7 6 5 4 3 3 3 3 3 5 8 10 11 12 14 15 16 19 22 24 27 28 30 31 31 30 30 31 29
40 40 40 39 37 36 35 34 34 34 35 34 31 29 29 28 26 24 22 20 19 19 20 20 19 19 20 21 22 22 21 21 22 22 23 23 23 23 22 22 21 21 20 20 18 17 14 12 12 13 12 11 10 9 9 8 8 7 5 4 3 3 3 3 3 6 8 10 11 12 14 15 17 19 22 24 26 27 28 30 32 31 32 34 34
41 40 40 38 37 36 36 36 35 35 35 33 30 29 31 30 28 26 23 21 20 19 20 20 19 20 21 22 23 22 21 20 20 21 22 22 22 22 22 22 21 21 20 19 18 16 14 13 13 13 12 10 9 9 9 8 8 7 5 4 4 4 3 3 4 6 8 10 10 12 14 15 17 20 22 23 24 25 27 29 30 30 31 33 34
42 41 40 38 37 36 36 36 36 35 34 32 29 30 33 32 30 28 24 22 20 20 20 20 20 21 22 23 23 21 20 19 20 20 21 22 22 22 22 22 21 20 20 19 18 16 14 12 12 13 12 10 9 9 9 9 9 8 6 6 5 4 4 3 5 7 10 11 12 13 13 15 17 20 21 22 23 24 26 28 28 29 30 31 33
42 42 40 37 35 35 36 35 35 35 34 31 29 31 35 34 32 29 25 24 22 20 20 21 21 21 23 23 23 22 21 20 21 21 22 22 22 21 20 20 20 18 18 18 17 16 14 12 12 12 10 9 10 10 10 10 10 8 7 7 6 5 4 4 6 9 11 13 14 14 13 13 16 19 20 20 20 22 25 27 26 27 29 30 30
42 41 39 36 35 35 35 35 35 35 35 32 30 33 36 35 33 30 27 25 23 21 20 22 22 22 23 24 23 23 22 22 22 22 21 20 20 19 19 18 17 16 16 15 15 14 13 12 12 11 10 10 11 11 10 11 10 9 8 7 7 6 4 5 7 10 12 13 15 14 12 13 15 18 18 18 18 21 23 24 24 26 28 29 29
42 41 40 38 36 36 35 35 36 36 35 33 32 35 36 35 34 32 29 26 23 20 21 22 23 23 25 25 25 25 25 24 23 22 22 22 21 21 20 18 16 15 14 13 12 12 12 13 13 12 12 13 13 11 11 11 11 10 8 8 8 6 6 6 7 9 11 13 14 12 11 13 15 15 16 16 19 22 22 20 22 25 28 29 30
41 41 40 38 37 35 34 34 36 36 34 34 34 36 37 36 35 33 30 26 24 21 22 23 24 25 26 27 27 27 27 27 26 26 26 26 25 24 23 21 19 17 14 12 12 12 14 15 13 12 13 15 14 12 12 12 11 10 10 9 8 8 8 8 7 9 12 13 12 9 10 12 13 14 15 16 20 22 21 21 24 26 28 29 30
42 40 38 37 37 35 33 33 36 36 35 35 35 36 37 38 36 33 29 26 24 23 22 23 25 26 27 28 28 29 29 29 29 28 27 27 27 25 25 25 22 21 19 18 17 18 19 17 14 13 16 16 15 13 13 13 13 12 12 10 9 10 10 9 8 9 11 11 8 6 7 9 11 13 14 16 20 20 20 22 24 25 27 28 29
42 39 37 36 36 34 31 31 34 35 34 34 35 37 39 38 36 32 29 26 24 24 23 24 26 28 29 29 29 30 31 30 31 29 26 27 27 26 26 27 26 24 23 22 22 22 22 20 17 16 18 18 16 14 14 15 15 13 12 11 10 11 11 10 9 9 9 9 6 5 6 9 11 13 14 16 19 19 18 20 22 24 25 26 28
40 37 35 33 32 31 31 30 30 32 33 33 34 37 38 37 35 32 30 27 25 25 25 25 27 29 30 30 30 31 31 31 30 28 25 26 27 26 27 29 28 25 23 23 22 22 22 22 20 19 18 18 17 16 15 15 15 14 13 12 11 11 11 10 10 10 9 7 5 5 7 9 11 12 14 16 18 18 17 19 21 22 23 25 27
38 35 33 32 30 31 32 29 26 28 30 30 33 37 37 35 34 32 30 27 26 27 27 27 28 29 30 29 30 31 31 30 29 27 25 25 26 26 27 30 29 26 24 23 21 20 20 21 20 19 18 17 17 17 16 14 14 14 13 13 13 12 11 10 10 10 9 6 5 5 8 10 11 12 13 16 18 18 18 20 21 20 21 24 25
35 33 33 32 32 32 31 28 25 27 29 31 34 37 36 34 33 32 30 28 28 29 30 29 29 29 29 29 29 31 31 30 29 28 26 26 26 26 27 28 27 25 24 23 21 19 19 19 18 16 15 15 16 16 16 15 14 14 14 14 14 13 12 11 10 10 9 6 5 7 9 10 11 12 13 15 17 17 19 21 19 18 20 22 23
31 31 31 32 33 32 30 28 25 26 29 32 34 34 34 34 33 32 32 30 30 31 31 30 30 29 29 29 29 30 31 30 30 29 27 25 25 24 25 27 27 26 25 24 22 22 21 20 17 15 14 14 14 14 15 16 15 14 14 15 15 14 13 12 11 11 9 6 6 8 10 10 11 12 12 14 15 16 19 21 18 17 19 20 21
29 29 30 32 33 31 29 26 23 24 29 33 34 33 34 34 34 33 33 32 32 32 31 31 30 29 29 29 29 28 29 29 30 30 27 25 25 24 24 27 28 28 27 26 25 25 24 21 19 18 16 14 11 12 14 15 15 15 15 15 15 15 14 13 11 11 10 7 7 9 10 10 12 12 12 13 14 15 18 19 17 17 19 20 21
30 30 31 32 31 29 27 26 24 26 31 34 35 35 34 34 34 33 33 33 33 32 32 31 30 28 28 29 28 27 27 28 29 28 27 25 24 24 24 27 29 30 29 28 28 27 25 22 21 19 16 14 12 13 15 14 14 14 15 15 15 14 13 12 11 10 9 7 7 7 9 11 12 12 11 12 12 15 18 18 17 18 19 19 19
32 32 31 31 30 29 29 28 28 30 33 34 34 34 33 32 32 32 33 33 33 32 31 30 28 27 27 27 27 26 26 26 25 25 26 26 25 25 25 26 29 32 31 30 28 26 24 23 23 21 18 15 16 17 16 15 14 14 15 15 15 13 12 11 10 8 7 8 9 8 9 12 13 13 13 11 11 14 17 17 18 19 20 20 20
33 33 31 30 30 31 30 29 29 31 33 34 35 34 32 32 32 32 33 34 33 32 31 29 27 26 26 25 25 25 25 25 24 24 25 25 25 27 28 27 28 32 34 32 29 26 25 25 25 23 20 18 19 19 19 17 17 16 15 15 14 12 11 11 11 10 9 10 9 9 9 12 13 15 15 12 11 13 15 16 18 19 20 20 21
34 34 31 29 29 27 26 27 28 29 31 33 33 33 32 32 32 32 33 32 31 30 28 27 26 24 23 23 23 23 25 25 24 22 22 23 24 27 29 29 28 31 34 34 31 28 27 27 25 24 23 22 22 22 21 20 19 17 16 16 14 11 9 10 11 11 10 9 9 9 10 11 13 17 17 13 12 13 14 16 18 19 19 19 20
34 35 33 30 27 25 23 25 26 26 27 28 29 29 29 28 28 29 30 29 28 26 25 24 22 20 21 21 22 23 24 24 20 17 17 19 21 25 28 29 29 29 32 34 32 30 29 28 27 27 27 26 24 24 23 21 19 18 17 15 13 11 9 10 11 11 10 9 9 11 12 12 15 18 17 14 12 12 13 15 17 18 17 18 18
36 36 35 31 28 25 23 23 24 24 24 25 26 27 26 25 24 26 26 25 25 24 24 22 19 18 18 18 19 20 20 18 16 15 15 16 17 20 23 25 26 27 29 32 34 33 32 31 31 30 30 29 27 27 25 22 20 18 17 15 14 13 11 11 12 11 10 9 10 12 14 15 17 18 15 12 12 11 11 14 17 16 15 16 17
35 36 34 32 29 27 26 26 25 25 25 25 25 26 26 25 23 23 23 23 23 24 23 21 18 17 16 16 16 17 17 15 14 13 13 13 13 15 17 19 22 24 27 31 35 37 36 35 34 33 32 31 30 29 27 24 21 19 17 15 15 15 13 12 11 11 11 11 11 13 15 16 17 16 12 11 12 11 11 14 15 14 14 15 16
32 33 33 32 31 30 28 27 26 26 26 26 26 26 26 25 22 20 21 22 23 23 22 19 17 16 16 15 16 16 16 16 14 14 14 15 15 15 14 15 18 22 25 29 33 37 38 38 37 36 35 34 32 31 29 25 22 19 17 16 15 15 13 11 11 12 13 13 13 14 15 15 15 14 12 12 12 11 12 14 14 13 15 16 15
28 29 29 28 28 27 25 24 24 25 27 27 25 25 25 24 21 20 21 22 23 23 22 20 18 17 17 17 17 16 17 17 17 16 17 17 16 15 13 14 17 21 24 28 31 34 36 38 38 37 36 35 34 32 30 26 23 20 18 17 16 14 12 11 12 13 14 13 13 14 14 13 13 12 12 13 13 13 15 16 14 14 17 16 15
27 26 24 23 23 22 21 20 21 22 24 24 23 22 22 22 21 22 23 23 23 23 23 22 20 19 18 18 17 17 18 20 20 18 17 16 15 14 13 14 16 20 24 27 29 31 32 34 36 36 35 34 34 33 30 27 24 19 15 15 15 14 12 12 13 13 13 12 12 13 12 13 14 16 16 16 15 15 17 16 14 16 19 18 16
23 22 19 19 19 19 18 17 18 19 21 21 20 20 21 23 24 25 24 23 22 23 23 22 21 20 18 17 18 18 20 21 21 19 16 15 15 16 16 17 19 21 24 27 28 29 29 30 31 31 31 32 33 32 30 27 23 18 15 15 15 14 13 14 14 12 11 11 13 14 15 16 17 18 19 18 18 19 18 16 14 16 19 17 16
17 18 17 16 15 15 15 14 15 15 16 17 18 20 22 24 24 23 21 20 22 24 24 22 20 19 18 18 19 20 21 22 21 19 17 17 18 19 19 20 20 21 23 25 26 26 26 27 27 27 28 29 30 30 29 27 23 20 19 18 16 15 16 16 13 10 10 12 14 15 16 16 17 18 19 21 21 20 18 16 15 15 15 14 14
17 17 16 15 13 13 12 11 11 11 12 15 17 19 20 21 20 19 18 18 20 23 24 23 21 20 19 20 21 21 22 22 21 20 19 19 20 21 21 21 20 20 22 23 24 24 25 25 25 26 26 27 28 28 28 25 22 21 22 21 19 18 17 14 11 10 12 14 16 17 18 19 19 19 18 18 17 15 14 14 15 13 11 12 15
16 15 13 12 11 12 11 10 9 10 11 13 16 17 19 19 19 18 17 17 18 20 22 23 23 22 22 22 22 22 22 22 21 21 21 21 22 23 22 20 20 20 20 20 21 22 23 23 24 24 24 25 25 24 25 24 22 22 22 22 21 20 17 12 10 12 14 16 18 19 20 21 19 16 14 13 13 14 13 13 13 12 12 14 16
14 13 12 11 10 11 11 10 9 10 11 12 12 13 15 16 17 17 16 16 16 17 19 21 22 23 23 23 23 23 23 23 22 23 23 23 23 23 22 21 20 20 20 20 21 21 22 22 22 22 22 22 21 21 22 22 22 21 21 20 20 19 16 13 13 15 16 18 20 20 20 20 18 16 15 15 16 17 16 15 15 16 17 18 17
13 13 12 10 9 10 11 11 11 11 12 12 11 10 11 12 12 12 13 14 15 16 17 18 18 19 19 21 22 23 22 22 22 22 22 23 24 23 23 23 21 20 19 20 21 22 22 22 21 21 20 20 20 20 20 20 20 19 17 16 16 16 16 15 16 18 19 20 20 19 19 19 19 18 18 19 19 19 19 19 19 19 18 17 17
12 11 10 9 7 7 9 11 12 13 12 12 11 10 10 10 10 10 12 13 14 15 16 16 15 15 15 16 16 17 17 17 17 18 20 22 23 24 24 24 22 21 20 20 20 21 22 22 22 21 20 19 19 18 18 17 16 15 14 13 14 15 16 17 18 20 20 19 18 18 18 19 19 20 21 21 21 19 18 18 18 17 16 17 18
9 8 8 8 8 7 8 9 10 11 12 12 11 11 11 10 11 11 12 14 15 15 16 16 15 14 13 13 13 13 13 13 13 15 17 19 21 23 24 24 23 22 21 19 19 21 22 22 22 21 20 19 18 17 17 16 14 13 14 14 15 17 18 20 21 21 20 19 18 18 19 20 21 22 22 22 21 19 17 16 16 16 17 18 19
7 6 6 7 8 8 9 9 9 10 12 12 12 11 11 11 12 12 12 13 15 15 16 16 15 13 12 12 13 14 13 13 13 12 13 15 18 20 21 21 21 21 21 21 20 21 22 23 23 22 21 20 19 18 18 17 14 12 14 16 18 20 22 23 23 22 20 19 18 18 20 21 23 24 23 22 20 18 18 18 18 18 18 19 19
6 5 5 6 6 6 7 7 7 8 10 11 12 12 12 12 11 11 10 9 10 11 12 12 13 13 12 13 14 15 14 14 14 13 12 13 14 15 15 16 17 18 20 21 21 21 22 23 24 23 22 22 20 19 18 18 16 15 16 18 21 24 24 23 22 22 20 19 19 20 22 23 23 23 22 20 18 17 17 17 18 18 18 19 20
7 5 5 5 6 5 5 6 6 7 8 10 11 13 13 12 11 10 9 7 6 6 8 9 10 11 12 13 14 15 15 15 15 14 13 13 13 12 11 11 12 14 16 17 18 20 22 23 24 24 24 23 22 20 20 20 20 20 20 21 23 24 24 23 21 20 18 18 19 20 21 21 21 20 18 16 15 15 15 16 17 18 20 21 22
8 6 6 6 7 6 6 6 7 8 9 10 11 12 12 11 10 10 9 8 6 6 8 9 10 11 13 14 15 15 15 15 15 14 14 14 13 12 11 10 10 11 12 12 13 15 17 19 21 22 23 22 21 21 20 21 22 22 23 24 24 24 23 21 18 17 17 17 18 19 19 20 20 18 16 15 15 15 16 18 19 21 23 24 25
9 6 6 7 7 6 7 8 8 9 10 10 11 12 12 12 11 11 12 11 10 10 10 10 10 11 12 14 15 16 15 15 14 14 14 14 14 13 13 12 11 11 10 10 11 12 13 15 17 18 19 19 19 20 20 21 21 22 23 23 23 23 21 19 18 17 17 18 19 20 21 22 20 18 16 16 17 18 19 21 22 23 25 26 28
9 7 6 6 5 5 6 7 8 8 9 9 10 12 12 12 11 12 12 11 10 9 10 10 10 10 11 12 14 14 14 13 13 13 14 14 15 15 15 14 13 12 11 10 10 10 11 13 14 15 16 17 18 19 20 20 20 21 21 21 21 21 20 20 19 19 19 19 20 21 22 21 19 18 18 19 20 21 23 24 25 26 28 29 30
8 8 8 7 6 5 5 4 4 4 4 5 7 8 8 8 9 9 9 9 8 6 7 9 9 9 9 10 11 10 10 10 11 11 12 13 14 16 17 16 15 14 12 11 10 10 10 12 13 14 15 17 18 19 19 19 19 19 18 18 19 20 20 20 20 19 20 21 21 20 19 19 19 20 21 22 23 24 25 27 28 29 30 30 29
6 10 11 9 7 7 6 5 3 2 4 5 6 7 6 6 7 8 8 8 8 8 8 7 7 7 8 9 10 10 10 10 9 9 9 9 10 12 14 15 14 14 13 11 10 10 11 12 13 14 15 17 18 19 19 18 17 17 17 17 18 19 19 20 20 20 20 21 19 18 17 19 21 22 22 23 24 26 28 29 29 28 28 27 26
7 11 12 11 10 10 8 7 7 5 2 5 7 9 9 9 9 10 10 11 12 12 11 9 8 9 11 13 13 13 13 13 11 9 9 9 9 9 9 10 11 13 13 12 12 12 14 14 14 14 15 16 18 19 19 17 17 16 17 18 19 19 19 20 20 20 20 20 19 18 19 22 23 23 23 25 28 30 29 27 25 24 23 23 23
Wind_Direction
197 197 196 198 201 200 201 202 205 207 208 206 203 201 202 203 206 210 213 214 214 216 216 210 210 212 213 216 220 221 222 221 218 214 212 211 211 212 212 209 207 207 209 209 208 208 210 209 208 205 197 190 187 185 184 183 183 189 197 190 176 177 196 215 213 208 252 313 343 2 9 8 3 358 357 1 6 9 9 6 6 5 5 12 24
197 197 196 198 200 200 200 201 204 206 205 202 201 201 202 206 209 211 212 215 216 217 214 210 211 214 216 219 222 223 224 222 219 216 213 212 212 212 212 209 208 209 209 210 209 208 209 209 209 207 203 199 195 192 193 195 190 186 189 186 180 192 216 244 255 264 336 348 350 3 9 4 357 354 355 358 1 7 10 7 6 8 8 14 22
197 197 197 198 200 199 199 200 202 203 202 200 200 201 205 208 211 212 213 216 218 218 216 215 216 216 218 221 223 224 225 222 218 216 214 213 214 213 212 210 210 211 211 211 210 210 210 208 206 205 205 208 206 199 201 207 200 189 192 201 201 201 231 275 291 320 350 355 356 1 1 356 353 352 355 357 359 7 12 6 5 10 12 15 21
198 198 198 198 199 199 199 200 200 201 200 200 201 202 205 209 210 210 211 215 219 218 216 217 219 219 221 223 223 224 224 222 218 216 214 214 215 215 213 211 210 212 214 212 211 211 211 208 206 205 206 211 210 201 203 212 207 197 201 215 223 219 252 282 300 324 335 343 355 358 350 346 352 355 353 357 2 9 14 8 5 12 16 16 19
198 199 198 198 199 199 200 201 200 201 201 202 203 203 206 210 210 206 207 213 218 217 217 218 219 221 222 223 224 224 224 222 219 216 214 214 215 216 216 214 212 214 215 212 211 211 210 209 208 207 209 213 212 203 205 214 212 205 207 217 239 264 280 291 304 318 327 337 346 351 346 344 355 0 355 358 4 9 14 14 11 15 19 19 18
198 198 198 198 199 199 200 201 201 203 203 204 205 206 209 211 208 203 207 215 220 219 218 219 220 222 224 224 225 226 224 222 220 218 215 214 215 216 217 216 214 215 215 212 211 210 210 211 210 210 213 215 214 211 212 216 215 215 218 219 242 275 293 306 314 323 336 344 340 342 350 351 356 3 1 4 9 9 11 17 19 20 20 19 15
198 198 199 198 199 199 200 201 203 204 204 204 205 209 212 210 204 204 211 218 223 221 219 220 223 225 227 226 226 225 224 222 221 218 217 216 217 217 218 217 215 216 216 214 213 212 213 215 215 216 219 217 214 216 217 219 220 229 239 238 251 283 301 314 323 331 345 352 344 342 354 356 357 3 5 9 15 15 12 12 14 18 20 20 15
197 198 199 199 198 198 199 202 203 203 203 205 209 213 212 205 202 206 212 218 225 224 221 222 222 224 226 226 226 225 223 223 221 218 218 218 219 218 218 217 216 216 216 215 215 217 217 218 220 220 219 215 213 215 217 220 221 231 245 246 253 281 301 315 328 339 349 354 351 350 357 359 0 6 10 13 17 18 15 9 6 8 11 16 18
197 197 198 198 197 198 200 202 202 202 203 206 211 212 207 201 202 206 211 220 227 225 221 221 220 220 223 224 225 225 224 224 222 220 220 220 219 219 218 218 218 217 217 217 218 221 221 219 219 216 212 211 213 216 218 219 221 226 234 245 261 280 296 314 333 344 352 356 356 356 359 3 7 11 14 17 16 14 12 8 3 4 5 8 16
198 198 198 197 197 199 200 201 202 203 205 209 212 210 204 200 202 206 212 222 229 225 218 217 218 220 222 223 224 224 224 225 223 221 222 222 220 219 218 218 219 219 220 220 222 224 222 216 213 211 211 213 216 220 221 221 224 226 230 246 265 283 295 310 340 352 356 359 359 357 360 6 12 13 13 15 14 10 8 4 1 2 2 2 8
197 197 197 197 198 199 199 201 203 205 208 212 214 209 203 201 204 208 214 222 228 224 217 214 216 219 222 224 224 224 224 224 223 221 221 221 220 220 220 220 220 221 222 224 226 227 222 215 212 212 214 217 219 222 225 225 227 228 231 244 264 283 295 312 343 355 359 0 359 356 357 4 12 13 10 9 8 7 5 2 359 0 1 358 358
197 195 196 198 198 198 199 201 203 206 210 214 214 207 203 203 206 210 215 222 227 224 216 214 215 215 219 222 222 223 222 221 221 220 219 219 219 220 221 222 222 221 221 224 228 228 225 217 214 213 214 218 222 228 232 232 231 231 232 241 261 277 290 318 342 351 354 355 357 356 355 1 9 11 8 4 1 1 1 359 359 359 360 357 354
196 194 196 198 199 199 200 202 205 207 210 214 213 207 204 205 209 212 217 223 226 223 216 213 213 213 216 218 218 219 219 217 217 218 219 220 220 220 222 223 222 220 221 224 227 227 226 220 216 216 216 219 224 229 235 237 236 235 235 238 246 264 290 317 337 346 347 347 350 353 354 -0 6 9 9 2 355 356 356 355 357 357 357 356 354
196 195 197 199 200 200 201 203 207 209 212 214 213 208 205 207 210 214 219 223 223 221 216 212 211 211 212 214 215 216 216 216 217 219 219 219 219 221 221 220 219 219 220 223 226 227 225 221 219 218 218 225 232 235 242 246 245 243 243 244 243 251 281 310 331 338 339 341 343 344 351 2 3 5 7 2 355 355 353 351 353 355 354 354 354
195 196 198 200 199 200 202 206 209 210 212 214 212 208 206 208 211 214 219 224 224 223 218 213 211 209 209 213 216 216 218 218 218 217 217 218 220 220 217 215 216 216 217 221 226 229 229 226 221 216 219 231 240 244 248 247 244 244 244 249 254 263 285 307 323 328 331 336 339 341 354 5 3 2 3 -0 355 351 347 347 351 353 351 351 354
193 195 198 199 199 200 203 208 210 211 211 212 210 208 207 209 213 216 219 221 222 223 219 213 211 209 209 213 216 219 221 219 214 215 219 221 222 218 213 210 207 207 214 222 226 231 235 234 225 216 222 235 241 246 251 248 247 250 253 260 270 278 291 302 312 321 327 334 338 346 -0 4 2 0 359 354 348 345 345 349 355 354 350 349 352
194 194 195 196 198 201 206 209 210 211 213 212 209 208 209 212 215 218 218 217 219 223 220 214 213 213 213 215 219 222 223 218 218 225 229 225 220 217 215 212 208 206 209 213 215 220 227 234 234 226 227 236 240 241 248 251 253 258 260 267 276 278 281 293 307 318 323 326 331 344 357 358 358 356 353 347 342 344 352 358 357 353 350 349 351
195 194 195 197 198 202 207 211 211 212 213 212 211 211 212 213 215 217 219 221 223 226 223 217 215 216 218 221 223 225 225 222 226 233 234 226 219 217 217 217 217 214 209 209 216 222 226 236 244 235 230 237 241 242 248 252 253 257 261 267 275 275 280 296 307 307 308 308 309 328 349 353 353 351 348 342 340 348 0 1 355 352 350 350 351
195 196 198 199 200 202 208 214 216 217 216 216 217 215 212 211 214 217 221 225 227 227 225 220 216 217 220 224 228 229 228 228 232 235 235 230 222 217 218 219 219 217 214 219 228 231 234 241 244 236 232 238 244 248 254 255 253 255 260 265 269 273 284 301 304 296 297 298 296 320 348 352 352 350 344 338 341 353 3 358 352 352 353 354 355
197 198 199 199 201 205 210 215 221 224 223 221 218 213 209 210 214 216 219 223 227 228 227 223 218 218 221 225 229 230 229 230 234 237 239 234 224 218 220 220 219 219 220 226 232 232 234 240 240 235 236 241 245 247 251 255 256 256 259 263 268 273 283 294 296 296 301 305 313 335 347 349 351 348 339 335 342 355 -0 353 352 356 358 357 359
195 196 197 199 204 208 211 214 222 227 225 220 213 208 207 211 216 219 221 224 227 227 225 222 220 220 223 226 229 231 232 232 235 239 240 236 227 222 222 222 221 222 222 225 231 234 237 240 237 233 234 239 244 247 249 254 257 257 259 263 267 271 277 283 286 289 295 307 329 341 342 345 347 342 334 335 345 354 353 348 351 360 3 1 1
193 194 197 201 205 209 211 212 215 220 218 212 208 207 209 214 220 223 225 225 225 225 223 222 221 222 224 226 229 232 234 235 238 241 242 239 232 226 223 222 221 220 221 223 227 232 237 240 239 236 236 239 245 250 251 252 256 257 258 261 264 269 274 278 282 283 285 302 328 332 337 341 338 333 332 338 347 351 345 344 352 4 7 5 3
193 194 199 204 207 207 206 205 208 214 214 208 207 210 213 217 222 224 225 225 224 224 224 224 223 223 224 225 227 231 235 238 241 244 244 242 237 229 223 220 218 218 221 221 221 224 230 235 236 234 232 236 244 251 250 250 252 254 255 256 261 267 271 275 281 280 277 291 324 333 337 335 328 329 335 342 348 346 339 341 355 8 6 7 8
194 196 202 206 205 201 200 204 212 220 217 210 209 213 216 219 222 223 224 225 226 225 225 224 224 224 225 228 230 234 237 240 242 244 244 242 238 231 223 219 216 216 219 221 220 223 228 236 241 238 230 229 240 251 251 248 249 251 252 254 258 263 269 277 281 276 271 285 325 341 343 333 326 333 341 344 345 339 332 339 358 7 2 3 7
193 197 201 202 201 200 203 210 219 223 218 211 210 214 217 220 222 223 224 226 226 226 226 226 227 228 230 233 236 239 242 242 242 243 242 239 236 231 225 220 216 216 220 223 223 224 228 235 243 245 236 227 234 248 253 253 253 253 253 255 258 263 271 278 278 274 276 289 309 328 334 329 331 337 336 337 340 332 328 339 358 3 359 2 9
192 198 201 202 205 210 212 214 218 219 215 211 212 216 219 221 223 225 227 227 227 228 229 229 230 232 234 236 238 241 244 245 244 242 239 235 233 230 227 223 218 216 220 225 225 224 227 231 236 241 238 229 229 240 248 254 256 256 257 257 259 264 268 270 270 275 284 291 297 304 309 313 324 331 327 326 331 327 329 342 355 357 356 359 3
193 195 199 203 208 213 214 213 214 215 213 212 213 217 220 223 226 228 229 229 228 228 230 232 234 237 239 241 242 243 244 245 245 241 236 234 233 230 227 225 221 217 219 223 224 224 226 228 230 234 233 227 225 231 239 246 251 255 258 258 257 261 263 262 263 270 280 290 298 302 295 293 305 318 320 320 322 325 334 347 351 350 351 352 352
195 193 195 199 203 207 208 208 207 208 210 212 216 219 221 224 229 233 235 235 234 233 235 237 240 245 248 248 248 248 246 245 247 246 240 238 238 235 230 227 224 221 220 222 222 222 223 226 227 229 229 226 223 227 235 243 250 257 259 255 253 253 254 253 256 264 278 291 300 303 298 291 296 308 314 317 321 329 341 347 346 345 346 346 346
196 194 195 199 202 203 203 203 203 204 207 212 217 221 225 229 234 237 239 241 242 244 246 248 252 257 260 258 255 252 251 253 259 260 254 249 247 243 238 234 232 230 226 223 221 221 222 224 226 228 229 229 228 232 239 246 253 257 255 252 247 240 240 248 254 260 270 284 296 303 303 299 299 306 311 314 319 329 340 342 338 340 343 345 347
194 195 197 202 206 208 208 208 207 208 210 212 215 218 222 227 233 236 238 240 243 246 248 252 258 262 263 263 263 262 263 267 270 266 261 257 253 249 244 242 241 238 231 224 222 223 224 226 228 230 232 233 235 239 243 249 255 256 253 249 243 236 238 248 253 257 266 279 291 296 294 293 299 307 312 314 316 320 327 331 331 333 340 345 347
196 198 202 207 211 213 215 215 215 215 216 218 219 218 216 218 224 232 238 240 242 243 245 250 256 259 259 261 262 262 261 261 259 257 258 258 258 255 250 244 240 236 232 227 225 225 227 229 231 234 235 237 239 242 245 250 256 255 250 247 240 234 238 248 255 267 281 289 291 288 284 289 300 309 314 315 313 308 312 322 325 326 331 335 336
201 203 207 211 213 215 216 218 220 219 218 218 219 220 219 216 218 227 236 239 241 243 245 247 249 251 253 254 253 251 250 250 253 258 261 261 262 262 256 243 233 230 229 229 228 229 230 232 234 236 238 240 242 244 246 250 255 254 249 245 237 231 236 248 261 275 284 286 285 280 280 291 302 307 309 310 307 300 305 315 320 322 326 326 324
204 206 209 211 212 212 214 217 219 219 218 216 217 221 221 218 220 229 236 236 236 237 239 240 241 242 245 246 245 244 246 248 252 257 261 262 262 259 252 239 229 226 226 227 228 229 231 234 236 238 241 244 246 247 248 251 255 252 246 241 237 235 240 253 265 272 273 275 278 279 283 294 300 300 301 303 300 297 302 309 313 317 321 322 323
209 213 216 216 213 212 213 215 216 216 216 216 219 224 225 221 223 231 235 233 230 230 230 232 233 234 236 238 238 237 239 243 248 252 257 260 259 255 247 236 228 226 227 228 229 229 230 233 236 238 242 245 247 249 250 251 251 248 239 235 237 242 248 257 266 270 269 271 281 286 288 291 292 293 297 298 295 297 301 303 305 310 314 316 319
209 214 219 220 218 216 214 211 210 212 215 217 222 229 229 225 224 229 233 236 238 237 232 230 230 231 230 230 232 233 235 239 244 247 248 248 248 248 244 238 233 230 230 229 229 229 230 232 235 239 241 244 246 248 249 249 247 241 234 233 239 246 252 259 266 271 270 272 279 281 282 285 289 292 293 291 290 294 298 298 300 305 307 308 314
197 201 205 209 210 209 209 210 211 214 219 224 228 231 231 228 228 232 237 241 243 241 235 230 229 230 229 228 230 233 237 242 246 246 244 243 244 244 245 245 243 240 236 234 233 232 232 233 236 239 240 243 245 246 246 245 243 237 233 234 238 246 252 257 263 268 271 274 276 276 279 285 290 292 291 288 287 289 290 294 301 304 305 309 318
182 189 194 194 190 191 198 208 218 228 234 234 233 231 230 231 234 238 240 240 237 234 232 230 229 230 230 230 231 234 239 244 247 244 241 241 243 244 246 248 248 244 240 238 237 236 236 236 237 238 239 240 242 243 244 245 244 241 238 238 241 247 252 255 259 265 272 275 275 275 281 288 294 298 297 291 289 289 288 293 300 304 308 317 321
178 184 189 189 188 191 200 210 224 234 234 229 228 227 228 231 235 238 239 236 230 227 229 230 232 234 235 237 237 237 239 242 242 238 236 239 243 245 246 247 246 244 243 242 240 238 239 239 238 239 239 239 240 241 243 245 245 243 243 244 247 249 250 251 257 263 268 271 273 278 285 291 298 306 306 296 291 291 291 296 302 303 306 312 315
176 177 181 189 196 203 208 211 216 216 211 210 217 225 229 232 234 236 237 234 229 228 229 231 234 237 238 239 239 238 239 242 242 241 241 243 246 249 250 249 248 249 250 247 242 239 239 238 239 240 240 240 241 241 241 244 246 247 249 252 252 248 242 244 255 261 262 266 273 281 287 291 296 306 310 306 302 297 290 290 295 298 299 303 305
172 172 176 184 197 208 212 211 212 214 211 210 216 227 235 239 238 236 236 236 235 235 236 238 241 244 243 241 240 240 243 247 248 248 249 250 250 251 251 251 252 256 258 255 248 244 241 240 238 239 240 240 240 240 242 245 247 247 247 247 243 237 235 241 251 256 259 266 274 280 284 288 293 299 305 308 309 305 295 287 287 290 294 298 301
164 167 173 179 190 205 211 210 214 221 223 224 229 237 244 248 245 241 240 242 243 244 244 246 249 251 248 245 243 242 245 249 251 252 254 255 254 252 251 253 257 261 263 261 256 251 248 244 240 239 239 238 239 241 242 242 240 237 233 229 228 232 238 245 252 257 262 268 274 277 282 286 289 293 300 305 307 306 299 290 285 286 290 295 299
164 178 192 200 204 209 215 219 224 227 227 231 238 243 245 247 248 246 245 246 248 250 250 250 251 252 252 249 244 240 240 243 246 252 256 256 255 254 252 253 257 262 265 266 263 259 256 251 246 243 240 237 239 239 234 227 226 230 231 229 231 237 243 248 253 259 264 269 273 276 280 283 285 289 297 302 301 298 294 287 284 286 290 294 299
168 177 190 201 204 208 218 231 238 237 234 235 241 245 247 249 251 251 251 250 250 250 249 248 250 254 258 257 252 246 241 236 238 248 257 259 258 256 253 253 256 262 267 269 267 264 261 257 253 249 245 241 240 237 228 222 225 235 241 241 241 243 246 251 260 266 269 270 273 276 279 281 283 288 294 298 297 293 288 284 283 285 288 292 297
168 167 170 183 193 203 214 225 234 238 236 235 239 244 248 250 248 248 250 249 250 250 248 245 244 247 253 257 256 253 247 240 239 248 258 262 263 263 259 256 256 259 264 266 266 264 263 259 256 254 250 244 241 239 236 233 235 239 244 247 248 249 253 261 271 277 275 272 272 274 275 277 282 288 295 297 294 289 286 285 285 287 289 293 298
182 185 189 200 213 221 224 229 235 238 235 233 233 238 244 246 244 243 245 243 241 244 243 239 237 239 243 248 252 255 254 250 250 254 259 261 265 270 267 261 258 258 261 263 264 262 261 260 258 256 253 248 244 244 243 242 241 241 242 246 250 255 261 269 277 280 279 277 277 276 276 281 287 293 297 296 294 292 292 292 291 292 294 297 300
188 190 203 212 220 228 235 238 239 236 234 235 237 240 247 253 254 257 262 265 265 262 255 246 241 243 245 246 248 252 254 254 254 257 258 259 265 271 272 269 267 263 262 264 264 261 259 256 254 252 251 249 247 246 245 244 244 244 246 249 255 261 267 273 277 280 282 283 282 281 284 290 293 294 293 294 295 295 294 292 292 293 295 297 300
192 196 205 206 212 229 239 242 243 239 233 232 237 242 247 252 256 262 268 272 274 274 270 259 248 246 249 249 250 252 256 258 259 260 259 260 265 271 273 273 273 273 272 273 272 267 262 256 250 246 244 244 245 247 248 248 247 247 250 254 259 264 269 274 278 280 281 281 282 284 287 289 288 285 285 289 292 292 293 294 296 296 296 296 298
194 200 200 192 196 212 219 227 239 242 235 232 237 241 240 238 239 244 249 252 258 273 286 281 268 256 252 252 253 253 255 258 261 262 260 259 261 265 269 272 272 273 276 277 274 270 266 262 254 246 241 241 244 248 250 249 248 249 253 257 261 266 270 274 277 278 277 276 277 279 282 282 281 281 285 288 290 292 293 294 295 295 295 295 297
197 206 204 197 196 198 197 206 235 261 266 257 249 246 242 234 230 234 241 243 252 283 298 283 260 245 242 248 253 253 253 258 263 263 260 257 254 254 259 264 267 268 270 271 270 269 269 265 258 250 244 243 245 247 247 247 249 253 256 259 262 265 269 272 273 272 269 269 272 275 278 280 281 283 287 290 291 292 294 294 294 293 293 294 297
204 214 212 209 205 196 190 198 217 271 316 298 269 258 256 245 235 240 249 253 264 285 291 269 237 228 241 252 254 253 257 266 271 269 267 269 263 253 250 254 260 265 267 267 269 274 277 276 269 260 251 246 245 244 244 247 252 258 261 262 263 265 265 265 266 266 266 268 269 270 272 276 280 282 284 286 288 290 292 293 292 291 292 294 297
177 195 197 198 198 194 194 203 206 206 256 274 255 243 239 237 237 242 245 246 257 273 281 270 248 245 252 255 254 255 262 270 275 274 274 281 285 278 263 254 255 258 259 261 268 279 283 282 277 267 257 249 245 244 246 252 259 264 265 266 266 264 262 262 263 266 267 267 266 265 268 274 279 282 283 285 288 290 291 291 291 292 293 295 294